KY0TEQ-13 Weather Reports


time (UTC)temp
C
wind
direction
speed
KPH
gust
KPH
rain 1hr
cm
rain 24hr
cm
rain mn
cm
humidity
%
barometer
mb
20260906232344 28 273 3.2 11.3 0.00 0.00 0.00 21 1305.7
20260906231844 28 197 6.4 12.9 0.00 0.00 0.00 21 1306.0
20260906231339 28 199 14.5 17.7 0.00 0.00 0.00 22 1306.0
20260906230838 28 229 11.3 16.1 0.00 0.00 0.00 21 1306.1
20260906230334 28 214 14.5 22.5 0.00 0.00 0.00 21 1306.0
20260906225832 28 220 14.5 16.1 0.00 0.00 0.00 22 1306.1
20260906225328 28 193 12.9 16.1 0.00 0.00 0.00 21 1305.8
20260906224823 28 180 6.4 14.5 0.00 0.00 0.00 22 1305.8
20260906224320 28 228 9.7 14.5 0.00 0.00 0.00 22 1306.1
20260906223816 28 194 8.0 9.7 0.00 0.00 0.00 21 1306.1
20260906223312 28 211 4.8 16.1 0.00 0.00 0.00 21 1306.2
20260906222809 28 223 3.2 11.3 0.00 0.00 0.00 21 1306.1
20260906222309 28 199 12.9 16.1 0.00 0.00 0.00 22 1306.2
20260906221807 28 228 17.7 22.5 0.00 0.00 0.00 22 1306.5
20260906221301 28 170 11.3 17.7 0.00 0.00 0.00 21 1306.2
20260906220757 28 198 11.3 12.9 0.00 0.00 0.00 22 1306.3
20260906220251 27 210 16.1 20.9 0.00 0.00 0.00 22 1306.6
20260906215751 27 194 14.5 16.1 0.00 0.00 0.00 22 1306.6
20260906215251 27 189 9.7 11.3 0.00 0.00 0.00 23 1306.6
20260906214749 27 214 12.9 14.5 0.00 0.00 0.00 23 1306.8
20260906214244 27 205 6.4 14.5 0.00 0.00 0.00 23 1306.8
20260906213743 27 180 11.3 17.7 0.00 0.00 0.00 22 1306.9
20260906213243 27 206 14.5 16.1 0.00 0.00 0.00 23 1306.7
20260906212740 27 159 11.3 20.9 0.00 0.00 0.00 22 1306.9
20260906212236 27 204 12.9 16.1 0.00 0.00 0.00 23 1306.9
20260906211736 27 203 16.1 22.5 0.00 0.00 0.00 21 1307.1
20260906211231 27 156 4.8 11.3 0.00 0.00 0.00 21 1307.1
20260906210726 27 154 4.8 12.9 0.00 0.00 0.00 21 1307.1
20260906210221 27 230 9.7 12.9 0.00 0.00 0.00 21 1307.2
20260906205716 27 195 8.0 17.7 0.00 0.00 0.00 22 1307.2
20260906205213 27 170 6.4 14.5 0.00 0.00 0.00 22 1307.3
20260906204713 27 271 6.4 12.9 0.00 0.00 0.00 21 1307.3
20260906204206 27 168 8.0 16.1 0.00 0.00 0.00 22 1307.4
20260906203706 27 169 11.3 14.5 0.00 0.00 0.00 22 1307.4
20260906203201 28 175 8.0 14.5 0.00 0.00 0.00 21 1307.6
20260906202658 27 199 14.5 22.5 0.00 0.00 0.00 22 1307.6
20260906202157 27 196 9.7 14.5 0.00 0.00 0.00 22 1307.6
20260906201652 27 212 11.3 16.1 0.00 0.00 0.00 23 1307.7
20260906201151 26 218 12.9 14.5 0.00 0.00 0.00 23 1307.7
20260906200648 26 174 14.5 20.9 0.00 0.00 0.00 24 1307.8
20260906200143 26 158 12.9 16.1 0.00 0.00 0.00 23 1308.0
20260906195638 27 212 20.9 25.7 0.00 0.00 0.00 23 1307.7
20260906195135 27 200 11.3 22.5 0.00 0.00 0.00 21 1307.8
20260906194631 27 198 12.9 17.7 0.00 0.00 0.00 22 1307.9
20260906194126 27 180 17.7 24.1 0.00 0.00 0.00 22 1308.0
20260906193621 27 193 14.5 22.5 0.00 0.00 0.00 22 1307.9
20260906193116 27 179 8.0 16.1 0.00 0.00 0.00 22 1307.8
20260906192612 26 210 12.9 16.1 0.00 0.00 0.00 22 1308.0
20260906192110 26 183 16.1 24.1 0.00 0.00 0.00 22 1307.9
20260906191606 26 228 11.3 16.1 0.00 0.00 0.00 22 1308.0
20260906191105 26 212 22.5 25.7 0.00 0.00 0.00 22 1308.3
20260906190604 26 171 9.7 16.1 0.00 0.00 0.00 22 1308.3
20260906190059 26 185 8.0 11.3 0.00 0.00 0.00 21 1308.3
20260906185558 26 179 9.7 14.5 0.00 0.00 0.00 21 1308.4
20260906185057 27 187 14.5 16.1 0.00 0.00 0.00 21 1308.5
20260906184552 27 206 4.8 12.9 0.00 0.00 0.00 20 1308.4
20260906184048 26 207 11.3 12.9 0.00 0.00 0.00 20 1308.6
20260906183544 26 201 16.1 20.9 0.00 0.00 0.00 22 1308.6
20260906183039 26 205 6.4 11.3 0.00 0.00 0.00 21 1308.6
20260906182534 26 198 12.9 20.9 0.00 0.00 0.00 21 1308.8
20260906182030 27 176 1.6 4.8 0.00 0.00 0.00 20 1308.8
20260906181526 27 191 3.2 9.7 0.00 0.00 0.00 20 1308.9
20260906181021 26 226 8.0 16.1 0.00 0.00 0.00 20 1309.0
20260906180516 26 160 4.8 14.5 0.00 0.00 0.00 21 1309.1
20260906180015 26 184 6.4 9.7 0.00 0.00 0.00 20 1309.1
20260906175509 27 162 6.4 11.3 0.00 0.00 0.00 21 1309.4
20260906175009 27 196 6.4 11.3 0.00 0.00 0.00 21 1309.4
20260906174507 26 159 1.6 9.7 0.00 0.00 0.00 21 1309.5
20260906174002 26 174 8.0 12.9 0.00 0.00 0.00 21 1309.5
20260906173457 27 111 9.7 14.5 0.00 0.00 0.00 22 1309.7
20260906172957 26 162 4.8 11.3 0.00 0.00 0.00 22 1309.7
20260906172447 25 174 0.0 6.4 0.00 0.00 0.00 23 1309.7
20260906171942 26 92 9.7 11.3 0.00 0.00 0.00 21 1310.1
20260906171436 25 145 4.8 9.7 0.00 0.00 0.00 23 1310.0
20260906170932 25 132 9.7 11.3 0.00 0.00 0.00 24 1310.2
20260906170428 25 109 3.2 12.9 0.00 0.00 0.00 24 1310.1
20260906165926 25 171 0.0 11.3 0.00 0.00 0.00 24 1310.2
20260906165424 25 150 9.7 12.9 0.00 0.00 0.00 24 1310.1
20260906164920 24 199 4.8 12.9 0.00 0.00 0.00 25 1309.9
20260906164418 23 187 9.7 14.5 0.00 0.00 0.00 26 1310.5
20260906163915 24 115 6.4 11.3 0.00 0.00 0.00 25 1310.1
20260906163410 23 130 9.7 11.3 0.00 0.00 0.00 26 1310.4
20260906162909 23 157 8.0 12.9 0.00 0.00 0.00 26 1310.2
20260906162407 23 210 4.8 11.3 0.00 0.00 0.00 26 1310.2
20260906161902 22 128 6.4 11.3 0.00 0.00 0.00 26 1310.0
20260906161401 22 185 8.0 11.3 0.00 0.00 0.00 26 1310.2
20260906160901 23 177 4.8 11.3 0.00 0.00 0.00 27 1310.1
20260906160354 23 144 4.8 9.7 0.00 0.00 0.00 28 1310.2
20260906155853 22 155 1.6 9.7 0.00 0.00 0.00 27 1310.4
20260906155346 22 150 4.8 6.4 0.00 0.00 0.00 27 1310.2
20260906154843 22 174 6.4 11.3 0.00 0.00 0.00 27 1310.2
20260906154338 22 180 4.8 9.7 0.00 0.00 0.00 29 1310.5
20260906153836 22 158 3.2 9.7 0.00 0.00 0.00 28 1310.4
20260906153336 22 189 1.6 6.4 0.00 0.00 0.00 26 1310.2
20260906152831 22 176 3.2 4.8 0.00 0.00 0.00 25 1310.2
20260906152326 22 184 1.6 3.2 0.00 0.00 0.00 25 1310.4
20260906151825 21 142 1.6 3.2 0.00 0.00 0.00 26 1310.4
20260906151321 21 359 4.8 6.4 0.00 0.00 0.00 26 1310.4
20260906150816 21 31 6.4 6.4 0.00 0.00 0.00 27 1310.4
20260906150312 21 23 4.8 6.4 0.00 0.00 0.00 28 1310.4
20260906145811 20 2 4.8 4.8 0.00 0.00 0.00 29 1310.4
20260906145309 20 22 6.4 6.4 0.00 0.00 0.00 28 1310.6
20260906144805 20 6 3.2 4.8 0.00 0.00 0.00 28 1310.5
20260906144300 20 229 3.2 9.7 0.00 0.00 0.00 30 1310.6
20260906143759 20 29 1.6 4.8 0.00 0.00 0.00 31 1310.5
20260906143256 19 20 4.8 4.8 0.00 0.00 0.00 31 1310.4
20260906142756 19 68 4.8 4.8 0.00 0.00 0.00 31 1310.6
20260906142251 18 44 4.8 4.8 0.00 0.00 0.00 32 1310.4
20260906141750 17 5 4.8 4.8 0.00 0.00 0.00 33 1310.5
20260906141245 17 265 3.2 4.8 0.00 0.00 0.00 35 1310.5
20260906140744 17 354 3.2 3.2 0.00 0.00 0.00 36 1310.7
20260906140239 16 127 1.6 3.2 0.00 0.00 0.00 37 1310.6
20260906135736 16 129 1.6 4.8 0.00 0.00 0.00 37 1310.6
20260906135232 15 32 3.2 9.7 0.00 0.00 0.00 38 1310.7
20260906134727 15 328 4.8 6.4 0.00 0.00 0.00 40 1310.5
20260906134223 15 183 1.6 1.6 0.00 0.00 0.00 41 1310.5
20260906133718 14 6 1.6 3.2 0.00 0.00 0.00 41 1310.6
20260906133214 14 312 3.2 3.2 0.00 0.00 0.00 43 1310.4
20260906132709 13 341 3.2 4.8 0.00 0.00 0.00 43 1310.1
20260906132204 13 111 3.2 4.8 0.00 0.00 0.00 43 1310.0
20260906131659 13 128 1.6 3.2 0.00 0.00 0.00 44 1310.0
20260906131155 12 13 3.2 6.4 0.00 0.00 0.00 45 1310.0
20260906130650 12 3 3.2 6.4 0.00 0.00 0.00 46 1309.9
20260906130145 12 290 3.2 4.8 0.00 0.00 0.00 47 1310.0
20260906125643 12 320 6.4 9.7 0.00 0.00 0.00 46 1309.6
20260906125141 12 326 3.2 4.8 0.00 0.00 0.00 46 1309.7
20260906124637 12 354 3.2 6.4 0.00 0.00 0.00 45 1309.5
20260906124132 12 359 3.2 4.8 0.00 0.00 0.00 46 1309.5
20260906123631 11 94 3.2 3.2 0.00 0.00 0.00 48 1309.4
20260906123127 11 250 1.6 3.2 0.00 0.00 0.00 49 1309.7
20260906122626 12 1 1.6 3.2 0.00 0.00 0.00 46 1309.6
20260906122121 12 23 3.2 4.8 0.00 0.00 0.00 46 1309.6
20260906121618 11 110 1.6 3.2 0.00 0.00 0.00 48 1309.6
20260906121114 11 8 3.2 4.8 0.00 0.00 0.00 48 1309.3
20260906120610 12 272 3.2 4.8 0.00 0.00 0.00 50 1309.5
20260906120107 11 332 4.8 4.8 0.00 0.00 0.00 48 1309.5
20260906115607 11 294 3.2 4.8 0.00 0.00 0.00 49 1309.6
20260906115102 11 308 6.4 6.4 0.00 0.00 0.00 51 1309.4
20260906114555 11 318 4.8 4.8 0.00 0.00 0.00 53 1309.4
20260906114051 12 324 4.8 4.8 0.00 0.00 0.00 50 1309.4
20260906113550 11 333 3.2 3.2 0.00 0.00 0.00 52 1309.3
20260906113045 11 274 1.6 3.2 0.00 0.00 0.00 50 1309.6
20260906112540 11 309 4.8 6.4 0.00 0.00 0.00 53 1309.3
20260906112037 10 322 3.2 4.8 0.00 0.00 0.00 55 1309.5
20260906111536 11 302 3.2 4.8 0.00 0.00 0.00 54 1309.4
20260906111032 11 322 3.2 4.8 0.00 0.00 0.00 52 1309.4
20260906110531 11 293 4.8 4.8 0.00 0.00 0.00 52 1309.3
20260906110031 11 312 6.4 6.4 0.00 0.00 0.00 53 1309.4
20260906105526 12 293 3.2 4.8 0.00 0.00 0.00 49 1309.3
20260906105022 12 303 3.2 4.8 0.00 0.00 0.00 48 1309.0
20260906104520 13 345 6.4 6.4 0.00 0.00 0.00 46 1309.3
20260906104015 13 10 3.2 3.2 0.00 0.00 0.00 47 1309.1
20260906103513 13 332 3.2 9.7 0.00 0.00 0.00 46 1308.9
20260906103008 13 10 3.2 9.7 0.00 0.00 0.00 47 1309.0
20260906102508 13 332 4.8 9.7 0.00 0.00 0.00 46 1308.9
20260906102009 13 11 6.4 6.4 0.00 0.00 0.00 47 1309.0
20260906101503 13 344 3.2 4.8 0.00 0.00 0.00 47 1308.9
20260906100959 13 10 3.2 6.4 0.00 0.00 0.00 46 1309.1
20260906100454 12 34 3.2 4.8 0.00 0.00 0.00 47 1309.0
20260906095954 12 131 1.6 1.6 0.00 0.00 0.00 50 1308.9
20260906095449 13 68 1.6 3.2 0.00 0.00 0.00 47 1308.8
20260906094944 13 58 3.2 4.8 0.00 0.00 0.00 46 1308.9
20260906094438 14 175 3.2 4.8 0.00 0.00 0.00 45 1308.8
20260906093934 14 352 4.8 6.4 0.00 0.00 0.00 45 1309.0
20260906093430 14 30 3.2 6.4 0.00 0.00 0.00 45 1308.9
20260906092930 13 284 1.6 3.2 0.00 0.00 0.00 46 1309.0
20260906092429 13 235 1.6 4.8 0.00 0.00 0.00 45 1308.9
20260906091925 13 326 3.2 3.2 0.00 0.00 0.00 46 1309.0
20260906091421 14 327 3.2 6.4 0.00 0.00 0.00 44 1309.0
20260906090917 14 353 6.4 9.7 0.00 0.00 0.00 44 1309.0
20260906090413 11 299 4.8 9.7 0.00 0.00 0.00 51 1308.9
20260906085907 12 290 4.8 4.8 0.00 0.00 0.00 51 1309.0
20260906085405 12 255 1.6 3.2 0.00 0.00 0.00 51 1308.9
20260906084859 13 320 4.8 4.8 0.00 0.00 0.00 46 1309.0
20260906084355 11 322 3.2 4.8 0.00 0.00 0.00 52 1308.9
20260906083849 12 245 1.6 3.2 0.00 0.00 0.00 49 1308.9
20260906083344 12 9 3.2 3.2 0.00 0.00 0.00 49 1309.0
20260906082844 11 310 4.8 4.8 0.00 0.00 0.00 53 1309.0
20260906082339 13 264 3.2 3.2 0.00 0.00 0.00 47 1309.1
20260906081835 12 341 3.2 4.8 0.00 0.00 0.00 51 1309.1
20260906081331 13 193 1.6 1.6 0.00 0.00 0.00 49 1309.0
20260906080826 13 160 1.6 3.2 0.00 0.00 0.00 47 1309.0
20260906080323 13 259 3.2 4.8 0.00 0.00 0.00 47 1309.3
20260906075821 12 351 3.2 4.8 0.00 0.00 0.00 49 1309.3
20260906075316 13 213 1.6 3.2 0.00 0.00 0.00 48 1309.3
20260906074812 13 347 4.8 4.8 0.00 0.00 0.00 47 1309.3
20260906074311 14 250 3.2 3.2 0.00 0.00 0.00 46 1309.4
20260906073810 15 208 1.6 1.6 0.00 0.00 0.00 44 1309.3
20260906073305 15 316 3.2 4.8 0.00 0.00 0.00 44 1309.3
20260906072802 14 350 1.6 4.8 0.00 0.00 0.00 45 1309.4
20260906072257 15 330 6.4 12.9 0.00 0.00 0.00 43 1309.3
20260906071753 14 51 6.4 9.7 0.00 0.00 0.00 45 1309.5
20260906071253 15 303 4.8 6.4 0.00 0.00 0.00 43 1309.4
20260906070749 15 335 6.4 6.4 0.00 0.00 0.00 42 1309.3
20260906070245 15 236 3.2 3.2 0.00 0.00 0.00 44 1309.4
20260906065744 15 333 1.6 3.2 0.00 0.00 0.00 45 1309.1
20260906065240 15 49 1.6 3.2 0.00 0.00 0.00 42 1309.3
20260906064736 14 321 3.2 4.8 0.00 0.00 0.00 46 1309.1
20260906064231 15 187 1.6 4.8 0.00 0.00 0.00 43 1309.5
20260906063726 14 56 1.6 3.2 0.00 0.00 0.00 45 1309.1
20260906063221 14 134 1.6 1.6 0.00 0.00 0.00 46 1309.1
20260906062717 15 184 0.0 1.6 0.00 0.00 0.00 45 1309.1
20260906062216 16 223 1.6 3.2 0.00 0.00 0.00 43 1309.3
20260906061712 16 357 4.8 6.4 0.00 0.00 0.00 41 1309.0
20260906061208 16 325 3.2 9.7 0.00 0.00 0.00 40 1309.0
20260906060703 16 329 3.2 4.8 0.00 0.00 0.00 41 1309.1
20260906060200 16 351 4.8 6.4 0.00 0.00 0.00 41 1308.9
20260906055655 15 0 3.2 4.8 0.00 0.00 0.00 43 1309.1
20260906055150 15 133 1.6 1.6 0.00 0.00 0.00 44 1309.0
20260906054646 16 342 3.2 3.2 0.00 0.00 0.00 42 1309.0
20260906054141 16 167 1.6 3.2 0.00 0.00 0.00 41 1309.3
20260906053637 16 7 6.4 6.4 0.00 0.00 0.00 41 1309.1
20260906053132 16 7 3.2 6.4 0.00 0.00 0.00 41 1309.0
20260906052627 16 39 3.2 3.2 0.00 0.00 0.00 41 1309.0
20260906052124 17 155 1.6 3.2 0.00 0.00 0.00 40 1308.9
20260906051620 17 8 3.2 4.8 0.00 0.00 0.00 39 1308.9
20260906051114 17 21 3.2 4.8 0.00 0.00 0.00 38 1309.1
20260906050610 18 286 3.2 4.8 0.00 0.00 0.00 36 1309.0
20260906050105 17 329 3.2 4.8 0.00 0.00 0.00 38 1308.9
20260906045603 16 1 3.2 4.8 0.00 0.00 0.00 41 1308.9
20260906045059 16 253 3.2 4.8 0.00 0.00 0.00 39 1309.0
20260906044554 16 0 4.8 4.8 0.00 0.00 0.00 40 1309.0
20260906044049 17 254 1.6 3.2 0.00 0.00 0.00 37 1309.1
20260906043545 17 340 4.8 6.4 0.00 0.00 0.00 37 1309.0
20260906043041 16 200 1.6 1.6 0.00 0.00 0.00 39 1309.1
20260906042540 16 192 0.0 1.6 0.00 0.00 0.00 40 1308.8
20260906042035 16 205 1.6 1.6 0.00 0.00 0.00 40 1309.0
20260906041531 16 185 0.0 1.6 0.00 0.00 0.00 38 1308.6
20260906041031 17 345 6.4 6.4 0.00 0.00 0.00 35 1308.9
20260906040521 18 14 4.8 6.4 0.00 0.00 0.00 35 1308.6
20260906040016 18 27 3.2 4.8 0.00 0.00 0.00 33 1308.8
20260906035510 19 230 1.6 4.8 0.00 0.00 0.00 31 1308.8
20260906035001 20 259 1.6 1.6 0.00 0.00 0.00 30 1308.6
20260906034501 20 231 1.6 4.8 0.00 0.00 0.00 29 1308.8
20260906033956 20 272 6.4 11.3 0.00 0.00 0.00 29 1308.6
20260906033450 20 293 4.8 11.3 0.00 0.00 0.00 30 1308.5
20260906032946 20 222 1.6 3.2 0.00 0.00 0.00 32 1308.6
20260906032443 20 210 1.6 4.8 0.00 0.00 0.00 31 1308.4
20260906031937 20 191 1.6 4.8 0.00 0.00 0.00 31 1308.4
20260906031432 21 254 1.6 3.2 0.00 0.00 0.00 29 1308.5
20260906030927 21 188 1.6 4.8 0.00 0.00 0.00 29 1308.3
20260906030422 21 270 4.8 9.7 0.00 0.00 0.00 29 1308.4
20260906025916 21 229 3.2 9.7 0.00 0.00 0.00 29 1308.3
20260906025411 21 264 6.4 6.4 0.00 0.00 0.00 29 1308.2
20260906024910 21 187 1.6 4.8 0.00 0.00 0.00 29 1308.0
20260906024409 21 207 1.6 4.8 0.00 0.00 0.00 28 1308.0
20260906023904 21 192 1.6 4.8 0.00 0.00 0.00 28 1308.0
20260906023400 21 204 3.2 4.8 0.00 0.00 0.00 27 1307.8
20260906022855 21 199 3.2 3.2 0.00 0.00 0.00 27 1307.7
20260906022350 21 223 6.4 6.4 0.00 0.00 0.00 26 1307.6
20260906021846 21 225 6.4 9.7 0.00 0.00 0.00 27 1307.6
20260906021345 21 219 4.8 6.4 0.00 0.00 0.00 26 1307.8
20260906020840 21 206 3.2 3.2 0.00 0.00 0.00 26 1307.7
20260906020339 21 176 1.6 4.8 0.00 0.00 0.00 26 1307.7
20260906015834 21 233 3.2 4.8 0.00 0.00 0.00 25 1307.6
20260906015333 22 234 3.2 3.2 0.00 0.00 0.00 24 1307.3
20260906014833 22 210 3.2 4.8 0.00 0.00 0.00 24 1307.3
20260906014328 22 189 3.2 4.8 0.00 0.00 0.00 24 1307.3
20260906013824 22 226 4.8 6.4 0.00 0.00 0.00 24 1307.6
20260906013320 22 215 3.2 6.4 0.00 0.00 0.00 24 1307.4
20260906012815 23 204 3.2 6.4 0.00 0.00 0.00 24 1307.4
20260906012314 23 229 6.4 6.4 0.00 0.00 0.00 24 1307.3
20260906011809 23 226 9.7 12.9 0.00 0.00 0.00 25 1307.4
20260906011304 23 214 6.4 9.7 0.00 0.00 0.00 26 1307.2
20260906010800 23 208 6.4 11.3 0.00 0.00 0.00 27 1307.2
20260906010256 23 226 6.4 9.7 0.00 0.00 0.00 26 1307.4
20260906005751 23 209 9.7 12.9 0.00 0.00 0.00 26 1307.4
20260906005250 24 212 8.0 11.3 0.00 0.00 0.00 25 1307.4
20260906004749 23 198 8.0 11.3 0.00 0.00 0.00 26 1307.6
20260906004244 24 204 14.5 14.5 0.00 0.00 0.00 26 1307.4
20260906003739 24 208 11.3 14.5 0.00 0.00 0.00 27 1307.4
20260906003235 25 196 14.5 17.7 0.00 0.00 0.00 26 1307.6
20260906002734 25 219 14.5 16.1 0.00 0.00 0.00 27 1307.6
20260906002229 25 213 11.3 16.1 0.00 0.00 0.00 26 1307.6
20260906001725 25 210 14.5 16.1 0.00 0.00 0.00 26 1307.3
20260906001220 26 228 12.9 17.7 0.00 0.00 0.00 24 1307.3
20260906000715 26 203 14.5 17.7 0.00 0.00 0.00 24 1307.1
20260906000212 26 216 17.7 22.5 0.00 0.00 0.00 24 1307.3
20260905235709 26 201 14.5 17.7 0.00 0.00 0.00 25 1307.3
20260905235204 26 194 17.7 24.1 0.00 0.00 0.00 24 1307.2
20260905234659 27 171 11.3 14.5 0.00 0.00 0.00 23 1307.3
20260905234155 26 178 14.5 16.1 0.00 0.00 0.00 23 1307.2
20260905233650 26 179 8.0 16.1 0.00 0.00 0.00 23 1307.1
20260905233149 27 201 20.9 22.5 0.00 0.00 0.00 22 1307.4
20260905232644 26 237 9.7 12.9 0.00 0.00 0.00 23 1307.4